Carbondale, IL

11:18 AM CST on December 05, 2019 (GMT -0600)
Southern Illinois

Weather History for KMDH - October, 2019

Change the Weather History Date:

Friday, October 4, 2019

  Actual Average Record
Temperature  
Mean Temperature 64 °F -  
Max Temperature 75 °F 74 °F 94 °F (1922)
Min Temperature 52 °F 46 °F 27 °F (1981)
Degree Days  
Heating Degree Days 2    
Growing Degree Days 14 (Base 50)    
Moisture  
Dew Point 48 °F    
Average Humidity 62    
Maximum Humidity 86    
Minimum Humidity 37    
Precipitation  
Precipitation 0.00 in - - ()
Sea Level Pressure  
Sea Level Pressure 30.24 in    
Wind  
Wind Speed 7 mph (NNE)    
Max Wind Speed 10 mph    
Max Gust Speed 20 mph    
Visibility 10 miles    
Events      
Averages and records for this station are not official NWS values.
T = Trace of Precipitation, MM = Missing Value Source: NWS Daily Summary

Daily Weather History Graph

Daily Weather History Graph

Search for Another Location

Airport or City:

Astronomy

Oct. 04, 2019 Rise Set
Actual Time 6:55 AM CDT 6:35 PM CDT
Civil Twilight 6:28 AM CDT 7:01 PM CDT
Nautical Twilight 5:58 AM CDT 7:32 PM CDT
Astronomical Twilight 5:27 AM CDT 8:02 PM CDT
Moon 1:20 PM CDT (10/4) 11:10 PM CDT (10/4)
Length of Visible Light 12h 33m
Length of Day
11h 40m
Waxing Crescent, 40% of the Moon is Illuminated
Oct 4
Waxing Crescent
Oct 5
First Quarter
Oct 13
Full
Oct 21
Last Quarter
Oct 27
New

Hourly Weather History & Observations

Time (CDT) Temp. Dew Point Humidity Pressure Visibility Wind Dir Wind Speed Gust Speed Precip Events Conditions
12:52 AM 59.0 °F 51.1 °F 75% 30.24 in 10.0 mi North 9.2 mph - N/A   Mostly Cloudy
1:52 AM 57.0 °F 50.0 °F 77% 30.25 in 10.0 mi North 5.8 mph - N/A   Clear
2:52 AM 54.0 °F 48.9 °F 83% 30.25 in 10.0 mi NNW 6.9 mph - N/A   Clear
3:52 AM 53.1 °F 48.9 °F 86% 30.26 in 10.0 mi NNW 5.8 mph - N/A   Clear
4:52 AM 53.1 °F 48.9 °F 86% 30.26 in 10.0 mi North 4.6 mph - N/A   Clear
5:52 AM 52.0 °F 48.0 °F 86% 30.28 in 10.0 mi North 5.8 mph - N/A   Clear
6:52 AM 52.0 °F 48.0 °F 86% 30.28 in 10.0 mi North 6.9 mph - N/A   Clear
7:52 AM 54.0 °F 46.9 °F 77% 30.30 in 10.0 mi North 8.1 mph 16.1 mph N/A   Clear
8:52 AM 57.9 °F 48.0 °F 70% 30.30 in 10.0 mi NNE 9.2 mph - N/A   Clear
9:52 AM 64.0 °F 48.9 °F 58% 30.30 in 10.0 mi NNE 8.1 mph - N/A   Clear
10:52 AM 66.9 °F 48.9 °F 52% 30.29 in 10.0 mi NNE 9.2 mph - N/A   Clear
11:52 AM 69.1 °F 50.0 °F 51% 30.28 in 10.0 mi East 8.1 mph - N/A   Clear
12:52 PM 72.0 °F 48.9 °F 44% 30.26 in 10.0 mi NE 10.4 mph 17.3 mph N/A   Clear
1:52 PM 73.9 °F 48.9 °F 41% 30.23 in 10.0 mi North 9.2 mph 19.6 mph N/A   Clear
2:52 PM 75.9 °F 48.0 °F 37% 30.21 in 10.0 mi NNE 8.1 mph - N/A   Clear
3:52 PM 75.0 °F 46.9 °F 37% 30.20 in 10.0 mi ENE 8.1 mph - N/A   Clear
4:52 PM 73.0 °F 46.9 °F 39% 30.20 in 10.0 mi Variable 6.9 mph - N/A   Clear
5:52 PM 72.0 °F 46.0 °F 40% 30.20 in 10.0 mi NNE 5.8 mph - N/A   Clear
6:52 PM 66.9 °F 46.0 °F 47% 30.19 in 10.0 mi NNE 5.8 mph - N/A   Clear
7:52 PM 63.0 °F 46.9 °F 56% 30.19 in 10.0 mi North 5.8 mph - N/A   Clear
8:52 PM 60.1 °F 46.9 °F 62% 30.21 in 10.0 mi North 3.5 mph - N/A   Clear
9:52 PM 59.0 °F 46.0 °F 62% 30.20 in 10.0 mi NNE 4.6 mph - N/A   Clear
10:52 PM 57.9 °F 46.9 °F 67% 30.19 in 10.0 mi Calm Calm - N/A   Clear
11:52 PM 54.0 °F 48.0 °F 80% 30.18 in 10.0 mi Calm Calm - N/A   Clear